owner,sensor,date,latitude,longitude,vertical_datum,direction_of_sea_water_velocity,sea_water_speed,upward_sea_water_velocity,qcFlag 
TABS,ioos:station:wmo:42050:1,2016-01-01T00:00:00Z,28.8425,-94.2433,2.0,238.2989651,19.33463473,-99999.0,'11111222,11111222,99999999' 
TABS,ioos:station:wmo:42050:1,2016-01-01T00:30:00Z,28.8425,-94.2433,2.0,214.8521391,49.7668484,-99999.0,'11111222,11111222,99999999' 
TABS,ioos:station:wmo:42050:1,2016-01-01T01:00:00Z,28.8425,-94.2433,2.0,294.7071317,23.99668519,-99999.0,'11111222,11111222,99999999' 
TABS,ioos:station:wmo:42050:1,2016-01-01T01:30:00Z,28.8425,-94.2433,2.0,219.5155404,34.18244286,-99999.0,'11111222,11111222,99999999' 
TABS,ioos:station:wmo:42050:1,2016-01-01T02:00:00Z,28.8425,-94.2433,2.0,17.07413656,29.29095424,-99999.0,'11111222,11111222,99999999' 
TABS,ioos:station:wmo:42050:1,2016-01-01T02:30:00Z,28.8425,-94.2433,2.0,213.350592,17.33468488,-99999.0,'11111222,11111222,99999999' 
TABS,ioos:station:wmo:42050:1,2016-01-01T03:00:00Z,28.8425,-94.2433,2.0,159.3750209,22.42744078,-99999.0,'11111222,11111222,99999999' 
TABS,ioos:station:wmo:42050:1,2016-01-01T03:30:00Z,28.8425,-94.2433,2.0,158.7976335,97.66066199,-99999.0,'11111222,11111222,99999999' 
TABS,ioos:station:wmo:42050:1,2016-01-01T04:00:00Z,28.8425,-94.2433,2.0,108.4553498,239.2864035,-99999.0,'11144222,11111222,99999999' 
TABS,ioos:station:wmo:42050:1,2016-01-01T04:30:00Z,28.8425,-94.2433,2.0,117.103492,167.4933614,-99999.0,'11133222,11111222,99999999' 
TABS,ioos:station:wmo:42050:1,2016-01-01T05:00:00Z,28.8425,-94.2433,2.0,101.6797034,198.7246965,-99999.0,'11144222,11111222,99999999' 
TABS,ioos:station:wmo:42050:1,2016-01-01T05:30:00Z,28.8425,-94.2433,2.0,106.3399517,172.9245677,-99999.0,'11133222,11111222,99999999' 
TABS,ioos:station:wmo:42050:1,2016-01-01T06:00:00Z,28.8425,-94.2433,2.0,106.1526978,117.2902063,-99999.0,'11111222,11111222,99999999' 
TABS,ioos:station:wmo:42050:1,2016-01-01T06:30:00Z,28.8425,-94.2433,2.0,139.4034214,77.17517995,-99999.0,'11111222,11111222,99999999' 
TABS,ioos:station:wmo:42050:1,2016-01-01T07:00:00Z,28.8425,-94.2433,2.0,116.6453637,111.5799019,-99999.0,'11111222,11111222,99999999' 
TABS,ioos:station:wmo:42050:1,2016-01-01T07:30:00Z,28.8425,-94.2433,2.0,104.3024562,103.3431202,-99999.0,'11111222,11111222,99999999' 
TABS,ioos:station:wmo:42050:1,2016-01-01T08:00:00Z,28.8425,-94.2433,2.0,136.9773245,67.00998806,-99999.0,'11111222,11111222,99999999' 
TABS,ioos:station:wmo:42050:1,2016-01-01T08:30:00Z,28.8425,-94.2433,2.0,117.448163,100.0982942,-99999.0,'11111222,11111222,99999999' 
TABS,ioos:station:wmo:42050:1,2016-01-01T09:00:00Z,28.8425,-94.2433,2.0,124.610292,43.16956451,-99999.0,'11111222,11111222,99999999' 
TABS,ioos:station:wmo:42050:1,2016-01-01T09:30:00Z,28.8425,-94.2433,2.0,98.09078827,94.85415436,-99999.0,'11111222,11111222,99999999' 
TABS,ioos:station:wmo:42050:1,2016-01-01T10:00:00Z,28.8425,-94.2433,2.0,138.9254208,106.3863243,-99999.0,'11111222,11111222,99999999' 
TABS,ioos:station:wmo:42050:1,2016-01-01T10:30:00Z,28.8425,-94.2433,2.0,95.75697844,101.9843802,-99999.0,'11111222,11111222,99999999' 
TABS,ioos:station:wmo:42050:1,2016-01-01T11:00:00Z,28.8425,-94.2433,2.0,114.9422564,227.8841085,-99999.0,'11144222,11111222,99999999' 
TABS,ioos:station:wmo:42050:1,2016-01-01T11:30:00Z,28.8425,-94.2433,2.0,114.3870166,247.5908377,-99999.0,'11144222,11111222,99999999' 
TABS,ioos:station:wmo:42050:1,2016-01-01T12:00:00Z,28.8425,-94.2433,2.0,117.0100149,247.5849147,-99999.0,'11144222,11111222,99999999' 
TABS,ioos:station:wmo:42050:1,2016-01-01T12:30:00Z,28.8425,-94.2433,2.0,115.6410185,284.2635626,-99999.0,'11144222,11111222,99999999' 
TABS,ioos:station:wmo:42050:1,2016-01-01T13:00:00Z,28.8425,-94.2433,2.0,120.6647829,285.6776556,-99999.0,'11144222,11111222,99999999' 
TABS,ioos:station:wmo:42050:1,2016-01-01T13:30:00Z,28.8425,-94.2433,2.0,111.3215646,221.533021,-99999.0,'11144222,11111222,99999999' 
TABS,ioos:station:wmo:42050:1,2016-01-01T14:00:00Z,28.8425,-94.2433,2.0,114.1167961,275.8695389,-99999.0,'11144222,11111222,99999999' 
TABS,ioos:station:wmo:42050:1,2016-01-01T14:30:00Z,28.8425,-94.2433,2.0,127.1371913,292.7151873,-99999.0,'11144222,11111222,99999999' 
TABS,ioos:station:wmo:42050:1,2016-01-01T15:00:00Z,28.8425,-94.2433,2.0,105.471588,266.4556368,-99999.0,'11144222,11111222,99999999' 
TABS,ioos:station:wmo:42050:1,2016-01-01T15:30:00Z,28.8425,-94.2433,2.0,103.0952423,238.0711196,-99999.0,'11144222,11111222,99999999' 
TABS,ioos:station:wmo:42050:1,2016-01-01T16:00:00Z,28.8425,-94.2433,2.0,106.9666213,217.3293199,-99999.0,'11144222,11111222,99999999' 
TABS,ioos:station:wmo:42050:1,2016-01-01T16:30:00Z,28.8425,-94.2433,2.0,123.2819168,185.3633189,-99999.0,'11144222,11111222,99999999' 
TABS,ioos:station:wmo:42050:1,2016-01-01T17:00:00Z,28.8425,-94.2433,2.0,99.85419685,135.56,-99999.0,'11111222,11111222,99999999' 
TABS,ioos:station:wmo:42050:1,2016-01-01T17:30:00Z,28.8425,-94.2433,2.0,317.8527803,24.4396072,-99999.0,'11111222,11111222,99999999' 
TABS,ioos:station:wmo:42050:1,2016-01-01T18:00:00Z,28.8425,-94.2433,2.0,258.0444607,27.51683848,-99999.0,'11111222,11111222,99999999' 
TABS,ioos:station:wmo:42050:1,2016-01-01T18:30:00Z,28.8425,-94.2433,2.0,173.3804303,18.13086319,-99999.0,'11111222,11111222,99999999' 
TABS,ioos:station:wmo:42050:1,2016-01-01T19:00:00Z,28.8425,-94.2433,2.0,221.9287509,68.10733441,-99999.0,'11111222,11111222,99999999' 
TABS,ioos:station:wmo:42050:1,2016-01-01T19:30:00Z,28.8425,-94.2433,2.0,214.4025561,56.40628068,-99999.0,'11111222,11111222,99999999' 
TABS,ioos:station:wmo:42050:1,2016-01-01T20:00:00Z,28.8425,-94.2433,2.0,225.3454472,39.83912148,-99999.0,'11111222,11111222,99999999' 
TABS,ioos:station:wmo:42050:1,2016-01-01T20:30:00Z,28.8425,-94.2433,2.0,225.6342878,24.898757,-99999.0,'11111222,11111222,99999999' 
TABS,ioos:station:wmo:42050:1,2016-01-01T21:00:00Z,28.8425,-94.2433,2.0,160.9757313,62.12306657,-99999.0,'11111222,11111222,99999999' 
TABS,ioos:station:wmo:42050:1,2016-01-01T21:30:00Z,28.8425,-94.2433,2.0,193.1995414,47.51536699,-99999.0,'11111222,11111222,99999999' 
TABS,ioos:station:wmo:42050:1,2016-01-01T22:00:00Z,28.8425,-94.2433,2.0,212.8483747,35.50741472,-99999.0,'11111222,11111222,99999999' 
TABS,ioos:station:wmo:42050:1,2016-01-01T22:30:00Z,28.8425,-94.2433,2.0,290.103882,15.85605878,-99999.0,'11111222,11111222,99999999' 
TABS,ioos:station:wmo:42050:1,2016-01-01T23:00:00Z,28.8425,-94.2433,2.0,86.14100997,26.29962927,-99999.0,'11111222,11111222,99999999' 
TABS,ioos:station:wmo:42050:1,2016-01-01T23:30:00Z,28.8425,-94.2433,2.0,144.4920815,91.37181896,-99999.0,'11111222,11111222,99999999' 
TABS,ioos:station:wmo:42050:1,2016-01-02T00:00:00Z,28.8425,-94.2433,2.0,124.9624462,117.7752542,-99999.0,'11111222,11111222,99999999' 
TABS,ioos:station:wmo:42050:1,2016-01-02T00:30:00Z,28.8425,-94.2433,2.0,118.2640589,224.5865504,-99999.0,'11144222,11111222,99999999' 
TABS,ioos:station:wmo:42050:1,2016-01-02T02:00:00Z,28.8425,-94.2433,2.0,121.1228476,205.5812922,-99999.0,'11144222,11111222,99999999' 
TABS,ioos:station:wmo:42050:1,2016-01-02T02:30:00Z,28.8425,-94.2433,2.0,110.0709601,219.4155375,-99999.0,'11144222,11111222,99999999' 
TABS,ioos:station:wmo:42050:1,2016-01-02T03:00:00Z,28.8425,-94.2433,2.0,123.6144223,166.1300798,-99999.0,'11133222,11111222,99999999' 
TABS,ioos:station:wmo:42050:1,2016-01-02T03:30:00Z,28.8425,-94.2433,2.0,173.7417215,53.94143862,-99999.0,'11111222,11111222,99999999' 
TABS,ioos:station:wmo:42050:1,2016-01-02T04:00:00Z,28.8425,-94.2433,2.0,150.291817,160.1152316,-99999.0,'11133222,11111222,99999999' 
TABS,ioos:station:wmo:42050:1,2016-01-02T04:30:00Z,28.8425,-94.2433,2.0,123.6539631,127.9194375,-99999.0,'11111222,11111222,99999999' 
TABS,ioos:station:wmo:42050:1,2016-01-02T05:00:00Z,28.8425,-94.2433,2.0,141.3823442,114.3051692,-99999.0,'11111222,11111222,99999999' 
TABS,ioos:station:wmo:42050:1,2016-01-02T05:30:00Z,28.8425,-94.2433,2.0,116.4040902,132.1789715,-99999.0,'11111222,11111222,99999999' 
TABS,ioos:station:wmo:42050:1,2016-01-02T06:00:00Z,28.8425,-94.2433,2.0,117.224455,79.65401748,-99999.0,'11111222,11111222,99999999' 
TABS,ioos:station:wmo:42050:1,2016-01-02T06:30:00Z,28.8425,-94.2433,2.0,105.9708578,80.24742301,-99999.0,'11111222,11111222,99999999' 
TABS,ioos:station:wmo:42050:1,2016-01-02T07:00:00Z,28.8425,-94.2433,2.0,112.8347208,74.44436983,-99999.0,'11111222,11111222,99999999' 
TABS,ioos:station:wmo:42050:1,2016-01-02T07:30:00Z,28.8425,-94.2433,2.0,129.5592006,102.4688616,-99999.0,'11111222,11111222,99999999' 
TABS,ioos:station:wmo:42050:1,2016-01-02T08:00:00Z,28.8425,-94.2433,2.0,139.6315223,102.7174206,-99999.0,'11111222,11111222,99999999' 
TABS,ioos:station:wmo:42050:1,2016-01-02T08:30:00Z,28.8425,-94.2433,2.0,115.350068,68.97136942,-99999.0,'11111222,11111222,99999999' 
TABS,ioos:station:wmo:42050:1,2016-01-02T09:00:00Z,28.8425,-94.2433,2.0,115.3916526,62.24282288,-99999.0,'11111222,11111222,99999999' 
TABS,ioos:station:wmo:42050:1,2016-01-02T09:30:00Z,28.8425,-94.2433,2.0,100.3386492,80.29363736,-99999.0,'11111222,11111222,99999999' 
TABS,ioos:station:wmo:42050:1,2016-01-02T10:00:00Z,28.8425,-94.2433,2.0,117.5503961,75.15194276,-99999.0,'11111222,11111222,99999999' 
TABS,ioos:station:wmo:42050:1,2016-01-02T10:30:00Z,28.8425,-94.2433,2.0,156.4038666,67.77675855,-99999.0,'11111222,11111222,99999999' 
TABS,ioos:station:wmo:42050:1,2016-01-02T11:00:00Z,28.8425,-94.2433,2.0,88.62109896,104.7203252,-99999.0,'11111222,11111222,99999999' 
TABS,ioos:station:wmo:42050:1,2016-01-02T11:30:00Z,28.8425,-94.2433,2.0,151.0370014,78.2459181,-99999.0,'11111222,11111222,99999999' 
TABS,ioos:station:wmo:42050:1,2016-01-02T12:00:00Z,28.8425,-94.2433,2.0,88.56936639,98.13058901,-99999.0,'11111222,11111222,99999999' 
TABS,ioos:station:wmo:42050:1,2016-01-02T12:30:00Z,28.8425,-94.2433,2.0,130.2426471,89.60921883,-99999.0,'11111222,11111222,99999999' 
TABS,ioos:station:wmo:42050:1,2016-01-02T13:00:00Z,28.8425,-94.2433,2.0,128.0596676,75.60630265,-99999.0,'11111222,11111222,99999999' 
TABS,ioos:station:wmo:42050:1,2016-01-02T13:30:00Z,28.8425,-94.2433,2.0,127.5256947,69.36254465,-99999.0,'11111222,11111222,99999999' 
TABS,ioos:station:wmo:42050:1,2016-01-02T14:00:00Z,28.8425,-94.2433,2.0,159.0899541,94.76066061,-99999.0,'11111222,11111222,99999999' 
TABS,ioos:station:wmo:42050:1,2016-01-02T14:30:00Z,28.8425,-94.2433,2.0,152.137902,69.15693747,-99999.0,'11111222,11111222,99999999' 
TABS,ioos:station:wmo:42050:1,2016-01-02T15:00:00Z,28.8425,-94.2433,2.0,118.5677158,63.21647966,-99999.0,'11111222,11111222,99999999' 
TABS,ioos:station:wmo:42050:1,2016-01-02T15:30:00Z,28.8425,-94.2433,2.0,117.2881601,102.7555084,-99999.0,'11111222,11111222,99999999' 
TABS,ioos:station:wmo:42050:1,2016-01-02T16:00:00Z,28.8425,-94.2433,2.0,141.0649177,43.90251246,-99999.0,'11111222,11111222,99999999' 
TABS,ioos:station:wmo:42050:1,2016-01-02T16:30:00Z,28.8425,-94.2433,2.0,57.2559792,38.80656774,-99999.0,'11111222,11111222,99999999' 
TABS,ioos:station:wmo:42050:1,2016-01-02T17:00:00Z,28.8425,-94.2433,2.0,185.3100145,49.27146436,-99999.0,'11111222,11111222,99999999' 
TABS,ioos:station:wmo:42050:1,2016-01-02T17:30:00Z,28.8425,-94.2433,2.0,196.1485972,41.77847891,-99999.0,'11111222,11111222,99999999' 
TABS,ioos:station:wmo:42050:1,2016-01-02T18:00:00Z,28.8425,-94.2433,2.0,346.9340381,9.598510301,-99999.0,'11133222,11111222,99999999' 
TABS,ioos:station:wmo:42050:1,2016-01-02T18:30:00Z,28.8425,-94.2433,2.0,204.540813,43.93931497,-99999.0,'11111222,11111222,99999999' 
TABS,ioos:station:wmo:42050:1,2016-01-02T19:00:00Z,28.8425,-94.2433,2.0,297.1494873,23.69013508,-99999.0,'11111222,11111222,99999999' 
TABS,ioos:station:wmo:42050:1,2016-01-02T19:30:00Z,28.8425,-94.2433,2.0,325.8946628,36.32827136,-99999.0,'11111222,11111222,99999999' 
TABS,ioos:station:wmo:42050:1,2016-01-02T20:00:00Z,28.8425,-94.2433,2.0,349.5289349,40.3316811,-99999.0,'11111222,11111222,99999999' 
TABS,ioos:station:wmo:42050:1,2016-01-02T20:30:00Z,28.8425,-94.2433,2.0,357.9940646,17.71085543,-99999.0,'11111222,11111222,99999999' 
TABS,ioos:station:wmo:42050:1,2016-01-02T21:00:00Z,28.8425,-94.2433,2.0,244.9112032,31.9327105,-99999.0,'11111222,11111222,99999999' 
TABS,ioos:station:wmo:42050:1,2016-01-03T05:00:00Z,28.8425,-94.2433,2.0,110.8431834,290.715135,-99999.0,'11144222,11111222,99999999' 
TABS,ioos:station:wmo:42050:1,2016-01-03T07:30:00Z,28.8425,-94.2433,2.0,124.8918071,281.2615902,-99999.0,'11144222,11111222,99999999' 
TABS,ioos:station:wmo:42050:1,2016-01-03T08:00:00Z,28.8425,-94.2433,2.0,97.85421932,254.0734825,-99999.0,'11144222,11111222,99999999' 
TABS,ioos:station:wmo:42050:1,2016-01-03T08:30:00Z,28.8425,-94.2433,2.0,103.2212219,245.1992178,-99999.0,'11144222,11111222,99999999' 
TABS,ioos:station:wmo:42050:1,2016-01-03T09:00:00Z,28.8425,-94.2433,2.0,107.6870438,258.5097594,-99999.0,'11144222,11111222,99999999' 
TABS,ioos:station:wmo:42050:1,2016-01-03T09:30:00Z,28.8425,-94.2433,2.0,104.9544149,256.3833762,-99999.0,'11144222,11111222,99999999' 
TABS,ioos:station:wmo:42050:1,2016-01-03T10:00:00Z,28.8425,-94.2433,2.0,106.6104942,290.1374235,-99999.0,'11144222,11111222,99999999' 
TABS,ioos:station:wmo:42050:1,2016-01-03T10:30:00Z,28.8425,-94.2433,2.0,112.3143666,233.3225463,-99999.0,'11144222,11111222,99999999' 
TABS,ioos:station:wmo:42050:1,2016-01-03T11:00:00Z,28.8425,-94.2433,2.0,112.3560724,284.2553192,-99999.0,'11144222,11111222,99999999' 
TABS,ioos:station:wmo:42050:1,2016-01-03T11:30:00Z,28.8425,-94.2433,2.0,117.5009841,288.0037356,-99999.0,'11144222,11111222,99999999' 
TABS,ioos:station:wmo:42050:1,2016-01-03T12:00:00Z,28.8425,-94.2433,2.0,120.3155574,130.9921402,-99999.0,'11111222,11111222,99999999' 
TABS,ioos:station:wmo:42050:1,2016-01-03T12:30:00Z,28.8425,-94.2433,2.0,105.1989469,259.6005277,-99999.0,'11144222,11111222,99999999' 
TABS,ioos:station:wmo:42050:1,2016-01-03T13:00:00Z,28.8425,-94.2433,2.0,112.6814931,247.9455283,-99999.0,'11144222,11111222,99999999' 
TABS,ioos:station:wmo:42050:1,2016-01-03T13:30:00Z,28.8425,-94.2433,2.0,100.0416661,263.872221,-99999.0,'11144222,11111222,99999999' 
TABS,ioos:station:wmo:42050:1,2016-01-03T14:00:00Z,28.8425,-94.2433,2.0,112.4294064,240.7313293,-99999.0,'11144222,11111222,99999999' 
TABS,ioos:station:wmo:42050:1,2016-01-03T14:30:00Z,28.8425,-94.2433,2.0,106.482745,275.3348776,-99999.0,'11144222,11111222,99999999' 
TABS,ioos:station:wmo:42050:1,2016-01-03T15:00:00Z,28.8425,-94.2433,2.0,114.7075382,255.9406582,-99999.0,'11144222,11111222,99999999' 
TABS,ioos:station:wmo:42050:1,2016-01-03T15:30:00Z,28.8425,-94.2433,2.0,123.1084821,254.9672093,-99999.0,'11144222,11111222,99999999' 
TABS,ioos:station:wmo:42050:1,2016-01-03T16:00:00Z,28.8425,-94.2433,2.0,107.8240936,207.9410592,-99999.0,'11144222,11111222,99999999' 
TABS,ioos:station:wmo:42050:1,2016-01-03T16:30:00Z,28.8425,-94.2433,2.0,127.5945386,193.2234572,-99999.0,'11144222,11111222,99999999' 
TABS,ioos:station:wmo:42050:1,2016-01-03T17:00:00Z,28.8425,-94.2433,2.0,80.92478447,90.28012018,-99999.0,'11111222,11111222,99999999' 
TABS,ioos:station:wmo:42050:1,2016-01-03T17:30:00Z,28.8425,-94.2433,2.0,48.29328318,44.80556439,-99999.0,'11111222,11111222,99999999' 
TABS,ioos:station:wmo:42050:1,2016-01-03T18:00:00Z,28.8425,-94.2433,2.0,165.8452154,36.39497355,-99999.0,'11111222,11111222,99999999' 
TABS,ioos:station:wmo:42050:1,2016-01-03T18:30:00Z,28.8425,-94.2433,2.0,112.6217411,137.0869232,-99999.0,'11111222,11111222,99999999' 
TABS,ioos:station:wmo:42050:1,2016-01-03T19:00:00Z,28.8425,-94.2433,2.0,109.4769556,139.280256,-99999.0,'11111222,11111222,99999999' 
TABS,ioos:station:wmo:42050:1,2016-01-03T19:30:00Z,28.8425,-94.2433,2.0,127.8585474,141.4010537,-99999.0,'11111222,11111222,99999999' 
TABS,ioos:station:wmo:42050:1,2016-01-03T20:00:00Z,28.8425,-94.2433,2.0,127.8122889,118.7940714,-99999.0,'11111222,11111222,99999999' 
TABS,ioos:station:wmo:42050:1,2016-01-03T20:30:00Z,28.8425,-94.2433,2.0,108.8561444,117.854949,-99999.0,'11111222,11111222,99999999' 
TABS,ioos:station:wmo:42050:1,2016-01-03T21:00:00Z,28.8425,-94.2433,2.0,118.4769398,109.6462621,-99999.0,'11111222,11111222,99999999' 
TABS,ioos:station:wmo:42050:1,2016-01-03T21:30:00Z,28.8425,-94.2433,2.0,103.9148918,100.7980317,-99999.0,'11111222,11111222,99999999' 
TABS,ioos:station:wmo:42050:1,2016-01-03T22:00:00Z,28.8425,-94.2433,2.0,98.70451299,115.1057983,-99999.0,'11111222,11111222,99999999' 
TABS,ioos:station:wmo:42050:1,2016-01-03T22:30:00Z,28.8425,-94.2433,2.0,125.7172503,99.72817706,-99999.0,'11111222,11111222,99999999' 
TABS,ioos:station:wmo:42050:1,2016-01-03T23:00:00Z,28.8425,-94.2433,2.0,103.2475494,125.4585864,-99999.0,'11111222,11111222,99999999' 
TABS,ioos:station:wmo:42050:1,2016-01-03T23:30:00Z,28.8425,-94.2433,2.0,116.3317172,123.0250076,-99999.0,'11111222,11111222,99999999' 
TABS,ioos:station:wmo:42050:1,2016-01-04T00:00:00Z,28.8425,-94.2433,2.0,111.3984725,83.97907894,-99999.0,'11111222,11111222,99999999' 
TABS,ioos:station:wmo:42050:1,2016-01-04T00:30:00Z,28.8425,-94.2433,2.0,179.7074674,31.36040816,-99999.0,'11111222,11111222,99999999' 
TABS,ioos:station:wmo:42050:1,2016-01-04T01:00:00Z,28.8425,-94.2433,2.0,133.4198512,89.2425235,-99999.0,'11111222,11111222,99999999' 
TABS,ioos:station:wmo:42050:1,2016-01-04T01:30:00Z,28.8425,-94.2433,2.0,102.8758303,241.5640888,-99999.0,'11144222,11111222,99999999' 
TABS,ioos:station:wmo:42050:1,2016-01-04T02:00:00Z,28.8425,-94.2433,2.0,120.4444363,227.8452269,-99999.0,'11144222,11111222,99999999' 
TABS,ioos:station:wmo:42050:1,2016-01-04T02:30:00Z,28.8425,-94.2433,2.0,98.8969724,220.9383337,-99999.0,'11144222,11111222,99999999' 
TABS,ioos:station:wmo:42050:1,2016-01-04T03:00:00Z,28.8425,-94.2433,2.0,194.7684958,22.00705569,-99999.0,'11111222,11111222,99999999' 
TABS,ioos:station:wmo:42050:1,2016-01-04T03:30:00Z,28.8425,-94.2433,2.0,304.0997504,60.94923954,-99999.0,'11111222,11111222,99999999' 
TABS,ioos:station:wmo:42050:1,2016-01-04T04:00:00Z,28.8425,-94.2433,2.0,292.1447117,29.47409201,-99999.0,'11111222,11111222,99999999' 
TABS,ioos:station:wmo:42050:1,2016-01-04T04:30:00Z,28.8425,-94.2433,2.0,335.9220575,73.90009066,-99999.0,'11111222,11111222,99999999' 
TABS,ioos:station:wmo:42050:1,2016-01-04T05:00:00Z,28.8425,-94.2433,2.0,271.9733758,70.00149784,-99999.0,'11111222,11111222,99999999' 
TABS,ioos:station:wmo:42050:1,2016-01-04T05:30:00Z,28.8425,-94.2433,2.0,298.3523,74.29147192,-99999.0,'11111222,11111222,99999999' 
TABS,ioos:station:wmo:42050:1,2016-01-04T06:00:00Z,28.8425,-94.2433,2.0,343.3572964,100.4166406,-99999.0,'11111222,11111222,99999999' 
TABS,ioos:station:wmo:42050:1,2016-01-04T06:30:00Z,28.8425,-94.2433,2.0,303.085897,62.30184668,-99999.0,'11111222,11111222,99999999' 
TABS,ioos:station:wmo:42050:1,2016-01-04T07:00:00Z,28.8425,-94.2433,2.0,290.2896273,61.07975524,-99999.0,'11111222,11111222,99999999' 
TABS,ioos:station:wmo:42050:1,2016-01-04T07:30:00Z,28.8425,-94.2433,2.0,298.100592,70.44353767,-99999.0,'11111222,11111222,99999999' 
TABS,ioos:station:wmo:42050:1,2016-01-04T08:00:00Z,28.8425,-94.2433,2.0,315.1231357,65.97321426,-99999.0,'11111222,11111222,99999999' 
TABS,ioos:station:wmo:42050:1,2016-01-04T08:30:00Z,28.8425,-94.2433,2.0,320.1185361,72.20774266,-99999.0,'11111222,11111222,99999999' 
TABS,ioos:station:wmo:42050:1,2016-01-04T09:00:00Z,28.8425,-94.2433,2.0,299.6447237,51.61589387,-99999.0,'11111222,11111222,99999999' 
TABS,ioos:station:wmo:42050:1,2016-01-04T09:30:00Z,28.8425,-94.2433,2.0,328.9475062,70.64378246,-99999.0,'11111222,11111222,99999999' 
TABS,ioos:station:wmo:42050:1,2016-01-04T10:00:00Z,28.8425,-94.2433,2.0,297.4712532,51.76697113,-99999.0,'11111222,11111222,99999999' 
TABS,ioos:station:wmo:42050:1,2016-01-04T10:30:00Z,28.8425,-94.2433,2.0,302.8523252,58.97093945,-99999.0,'11111222,11111222,99999999' 
TABS,ioos:station:wmo:42050:1,2016-01-04T11:00:00Z,28.8425,-94.2433,2.0,284.4751395,48.16898587,-99999.0,'11111222,11111222,99999999' 
TABS,ioos:station:wmo:42050:1,2016-01-04T11:30:00Z,28.8425,-94.2433,2.0,331.5786059,51.34918889,-99999.0,'11111222,11111222,99999999' 
TABS,ioos:station:wmo:42050:1,2016-01-04T12:00:00Z,28.8425,-94.2433,2.0,308.9477608,41.37719783,-99999.0,'11111222,11111222,99999999' 
TABS,ioos:station:wmo:42050:1,2016-01-04T12:30:00Z,28.8425,-94.2433,2.0,311.7988475,41.52955574,-99999.0,'11111222,11111222,99999999' 
TABS,ioos:station:wmo:42050:1,2016-01-04T13:00:00Z,28.8425,-94.2433,2.0,328.1565877,37.18699369,-99999.0,'11111222,11111222,99999999' 
TABS,ioos:station:wmo:42050:1,2016-01-04T13:30:00Z,28.8425,-94.2433,2.0,321.3325398,67.5092327,-99999.0,'11111222,11111222,99999999' 
TABS,ioos:station:wmo:42050:1,2016-01-04T14:00:00Z,28.8425,-94.2433,2.0,337.1134515,34.50652837,-99999.0,'11111222,11111222,99999999' 
TABS,ioos:station:wmo:42050:1,2016-01-04T14:30:00Z,28.8425,-94.2433,2.0,245.8915255,51.5350764,-99999.0,'11111222,11111222,99999999' 
TABS,ioos:station:wmo:42050:1,2016-01-04T15:00:00Z,28.8425,-94.2433,2.0,298.4265552,66.50891444,-99999.0,'11111222,11111222,99999999' 
TABS,ioos:station:wmo:42050:1,2016-01-04T15:30:00Z,28.8425,-94.2433,2.0,314.886172,88.73500606,-99999.0,'11111222,11111222,99999999' 
TABS,ioos:station:wmo:42050:1,2016-01-04T16:00:00Z,28.8425,-94.2433,2.0,304.0638315,90.64271068,-99999.0,'11111222,11111222,99999999' 
TABS,ioos:station:wmo:42050:1,2016-01-04T16:30:00Z,28.8425,-94.2433,2.0,23.69266247,79.51162557,-99999.0,'11111222,11111222,99999999' 
TABS,ioos:station:wmo:42050:1,2016-01-04T17:00:00Z,28.8425,-94.2433,2.0,126.9925571,64.41614782,-99999.0,'11111222,11111222,99999999' 
TABS,ioos:station:wmo:42050:1,2016-01-04T17:30:00Z,28.8425,-94.2433,2.0,101.6467723,259.5132,-99999.0,'11144222,11111222,99999999' 
TABS,ioos:station:wmo:42050:1,2016-01-04T18:00:00Z,28.8425,-94.2433,2.0,99.59058327,66.08362657,-99999.0,'11111222,11111222,99999999' 
TABS,ioos:station:wmo:42050:1,2016-01-04T18:30:00Z,28.8425,-94.2433,2.0,168.3735532,51.50676558,-99999.0,'11111222,11111222,99999999' 
TABS,ioos:station:wmo:42050:1,2016-01-04T19:00:00Z,28.8425,-94.2433,2.0,178.4580809,31.22130202,-99999.0,'11111222,11111222,99999999' 
TABS,ioos:station:wmo:42050:1,2016-01-04T19:30:00Z,28.8425,-94.2433,2.0,266.8213158,20.38134932,-99999.0,'11111222,11111222,99999999' 
TABS,ioos:station:wmo:42050:1,2016-01-04T20:00:00Z,28.8425,-94.2433,2.0,327.1946778,26.41242321,-99999.0,'11111222,11111222,99999999' 
TABS,ioos:station:wmo:42050:1,2016-01-04T20:30:00Z,28.8425,-94.2433,2.0,138.1750849,29.10677241,-99999.0,'11111222,11111222,99999999' 
TABS,ioos:station:wmo:42050:1,2016-01-04T21:00:00Z,28.8425,-94.2433,2.0,112.1873833,78.27607553,-99999.0,'11111222,11111222,99999999' 
TABS,ioos:station:wmo:42050:1,2016-01-04T21:30:00Z,28.8425,-94.2433,2.0,80.17219527,128.5971485,-99999.0,'11111222,11111222,99999999' 
TABS,ioos:station:wmo:42050:1,2016-01-04T22:00:00Z,28.8425,-94.2433,2.0,79.90423662,139.4796935,-99999.0,'11111222,11111222,99999999' 
TABS,ioos:station:wmo:42050:1,2016-01-04T22:30:00Z,28.8425,-94.2433,2.0,86.67126652,129.3382175,-99999.0,'11111222,11111222,99999999' 
TABS,ioos:station:wmo:42050:1,2016-01-04T23:00:00Z,28.8425,-94.2433,2.0,66.51350416,102.6763619,-99999.0,'11111222,11111222,99999999' 
TABS,ioos:station:wmo:42050:1,2016-01-04T23:30:00Z,28.8425,-94.2433,2.0,82.63637732,143.251438,-99999.0,'11111222,11111222,99999999' 
TABS,ioos:station:wmo:42050:1,2016-01-05T00:00:00Z,28.8425,-94.2433,2.0,152.1139186,28.90662381,-99999.0,'11111222,11111222,99999999' 
TABS,ioos:station:wmo:42050:1,2016-01-05T00:30:00Z,28.8425,-94.2433,2.0,83.33404757,192.2798554,-99999.0,'11144222,11111222,99999999' 
TABS,ioos:station:wmo:42050:1,2016-01-05T01:00:00Z,28.8425,-94.2433,2.0,87.07071048,151.8484116,-99999.0,'11133222,11111222,99999999' 
TABS,ioos:station:wmo:42050:1,2016-01-05T01:30:00Z,28.8425,-94.2433,2.0,88.47682576,244.1562717,-99999.0,'11144222,11111222,99999999' 
TABS,ioos:station:wmo:42050:1,2016-01-05T02:00:00Z,28.8425,-94.2433,2.0,83.29381986,257.4112004,-99999.0,'11144222,11111222,99999999' 
TABS,ioos:station:wmo:42050:1,2016-01-05T02:30:00Z,28.8425,-94.2433,2.0,90.46373275,269.3488222,-99999.0,'11144222,11111222,99999999' 